Regional Weather Roundup
Issued by NWS

Home | Current Version | Previous Version | Text Only | Print | Product List | Glossary Off
Versions: 1 2 3 4 5 6 7 8 9 10 11 12 13 14 15 16 17 18 19 20 21 22 23 24 25 26 27 28 29 30 31 32 33 34 35 36 37 38 39 40 41 42 43 44 45 46 47 48 49 50

000
ASUS43 KDMX 281707
RWRIA

WEATHER ROUNDUP FOR IOWA
NATIONAL WEATHER SERVICE DES MOINES IA
1100 AM CST SAT FEB 28 2015

NOTE: "FAIR" INDICATES FEW OR NO CLOUDS BELOW 12,000 FEET WITH NO
SIGNIFICANT WEATHER AND/OR OBSTRUCTIONS TO VISIBILITY.

* - THESE STATIONS ARE NOT NWS STATIONS...THUS NOT UNDER NWS
QUALITY CONTROL.  THEY ALSO DO NOT REPORT WEATHER SUCH
AS PRECIPITATION OR FOG.

IAZ001>003-012>014-020>022-031>034-043>046-281800-
   NORTHWEST IOWA

CITY           SKY/WX    TMP DP  RH WIND       PRES   REMARKS
CARROLL *      SUNNY     18   7  62 S9        30.48F WCI   6
CHEROKEE *     SUNNY     16   7  67 S12       30.45F WCI   3
DENISON *      SUNNY     18   7  62 S12       30.44F WCI   5
LE MARS *      SUNNY     18  10  73 S15       30.43F WCI   3
ORANGE CITY *  SUNNY     18   9  68 S14       30.40F WCI   4
SHELDON *      SUNNY     16   9  73 S15       30.40S WCI   1
SIOUX CITY     MOSUNNY   21  10  62 S14       30.44F WCI   8
SPENCER        SUNNY     14   5  67 S16       30.44F WCI  -2
STORM LAKE *   SUNNY     12   5  73 S16       30.44F WCI  -4
$$

IAZ055>058-069>071-079>083-090>094-281800-
   SOUTHWEST IOWA

CITY           SKY/WX    TMP DP  RH WIND       PRES   REMARKS
ATLANTIC *     SUNNY     19   9  63 S12G17    30.48F WCI   7
AUDUBON *      SUNNY     19   9  63 S9        30.47F WCI   9
CLARINDA *     PTSUNNY   23  10  58 S10       30.52S WCI  12
COUNCIL BLFS * MOSUNNY   18  10  73 S14       30.45F WCI   4
CRESTON *      SUNNY     19   9  63 S9        30.48F WCI   9
HARLAN  *      SUNNY     18  10  73 S10       30.50F WCI   6
LAMONI         PTSUNNY   18   8  65 SE8       30.50F WCI   8
RED OAK *      SUNNY     21  10  63 S9G16     30.49F WCI  11
SHENANDOAH *   PTSUNNY   23   9  54 S13       30.50F WCI  11
$$

IAZ047>049-059>061-072>074-084-281800-
   CENTRAL IOWA

CITY           SKY/WX    TMP DP  RH WIND       PRES   REMARKS
AMES           SUNNY     12   2  64 SE8       30.55S WCI   0
ANKENY *       SUNNY     14   3  62 SE6       30.56S WCI   5
CHARITON *     SUNNY     19   7  58 SE10      30.53F WCI   8
DES MOINES     MOSUNNY   17   4  56 S8        30.54F WCI   7
GRINNELL*      SUNNY     12   3  67 E7        30.57R WCI   2
KNOXVILLE *    SUNNY     16   1  53 SE6       30.54S WCI   7
MARSHALLTOWN   SUNNY      8  -1  66 SE9       30.56S WCI  -5
PELLA *        SUNNY     18   7  62 SE7       30.58S WCI   8
PERRY *          N/A     16   9  73 S6        30.52F WCI   7
$$

IAZ004>006-015-016-023>025-035-036-281800-
   NORTH CENTRAL IOWA

CITY           SKY/WX    TMP DP  RH WIND       PRES   REMARKS
ALGONA *       SUNNY     10   3  72 S15       30.49F WCI  -6
CLARION *      SUNNY     10   3  72 S13       30.52S WCI  -5
ESTHERVILLE    SUNNY      8   3  80 S17       30.45F WCI -10
FORT DODGE *   SUNNY     14   3  62 S9G16     30.51F WCI   2
MASON CITY     SUNNY      3  -3  76 S9        30.54F WCI -12
FOREST CITY *  SUNNY     10   5  79 SE10      30.51S WCI  -3
IOWA FALLS *     N/A      7   3  85 SE9       30.55S WCI  -7
$$

IAZ007>011-017>019-026>030-037>042-050>054-066-281800-
   NORTHEAST IOWA

CITY           SKY/WX    TMP DP  RH WIND       PRES   REMARKS
CEDAR RAPIDS   SUNNY      9   1  70 SE7       30.59F WCI  -2
CHARLES CITY * SUNNY      5   1  85 S13       30.57F WCI -12
CLINTON *      SUNNY     10   1  67 SE6       30.68F WCI   1
DECORAH *      SUNNY      5  -4  66 S8        30.58S WCI  -8
DUBUQUE        SUNNY      6  -1  73 S9        30.61F WCI  -8
MONTICELLO *   SUNNY      7  -2  66 SE7       30.63F WCI  -5
OELWEIN *      SUNNY      3   0  85 SE9       30.59S WCI -11
WATERLOO       SUNNY      7  -2  66 S12       30.58F WCI  -8
$$

IAZ064-065-067-068-078-281800-
   EAST CENTRAL IOWA

CITY           SKY/WX    TMP DP  RH WIND       PRES   REMARKS
DAVENPORT      SUNNY     13  -1  54 SE13      30.64F WCI  -2
IOWA CITY      SUNNY      8   0  69 SE7       30.64F WCI  -3
MT. PLEASANT * SUNNY     18   1  49 SE8       30.61S WCI   7
MUSCATINE *    SUNNY      9   1  72 CALM      30.66S
QUAD CITIES    SUNNY     12   1  61 SE12      30.65F WCI  -2
$$

IAZ062-063-075>077-085>089-095>099-281800-
   SOUTHEAST IOWA

CITY           SKY/WX    TMP DP  RH WIND       PRES   REMARKS
BURLINGTON     SUNNY     15   3  59 SE7       30.61F WCI   5
FAIRFIELD *    SUNNY     14   1  57 E8        30.60R WCI   3
FORT MADISON * SUNNY     16   3  57 SE10      30.61F WCI   3
KEOKUK *       SUNNY     18   5  57 E9        30.60F WCI   6
OSKALOOSA *      N/A     14   5  67 SE9       30.58S WCI   2
CENTERVILLE *  SUNNY     21   9  58 SE9       30.55S WCI  11
OTTUMWA        SUNNY     17   4  56 SE9       30.57F WCI   6
WASHINGTON *   SUNNY     14   7  73 SE8       30.61F WCI   3
$$

ABBREVIATIONS USED IN REMARKS
   TC - TEMPERATURES IN CELSIUS
  WCI - WIND CHILL INDEX
   HX - HEAT INDEX
  VSB - VISIBILITY
$$



USA.gov is the U.S. government's official web portal to all federal, state and local government web resources and services.